Regional Weather Roundup
Issued by NWS

Home | Current Version | Previous Version | Graphics & Text | Print | Product List | Glossary On
Versions: 1 2 3 4 5 6 7 8 9 10 11 12 13 14 15 16 17 18 19 20 21 22 23 24 25 26 27 28 29 30 31 32 33 34 35 36 37 38 39 40 41 42 43 44 45 46 47 48 49 50
000
ASUS43 KLMK 230810
RWRKY
KENTUCKY REGIONAL WEATHER ROUNDUP
NATIONAL WEATHER SERVICE LOUISVILLE KY
400 AM EDT TUE MAY 23 2017

NOTE "FAIR" INDICATES FEW OR NO CLOUDS BELOW 12,000 FEET
WITH NO SIGNIFICANT WEATHER AND/OR OBSTRUCTIONS TO VISIBILITY.

KYZ001>023-026-027-061>063-070>075-230900-
WESTERN AND SOUTH CENTRAL KENTUCKY

CITY           SKY/WX    TMP DP  RH WIND       PRES   REMARKS
PADUCAH        PTCLDY    56  53  90 CALM      29.85F
HENDERSON      MOCLDY    60  54  80 CALM      29.89F
OWENSBORO      CLOUDY    61  53  75 CALM      29.89F
HOPKINSVILLE   CLOUDY    61  56  84 NE6       29.86F
BOWLING GREEN  CLOUDY    61  56  83 NE3       29.89F
GLASGOW        CLOUDY    59  54  82 NE3       29.89F
$$

KYZ024-025-028>034-038-045-046-053-230900-
NORTH CENTRAL KENTUCKY

CITY           SKY/WX    TMP DP  RH WIND       PRES   REMARKS
LOUISVILLE/SDF CLOUDY    58  52  80 CALM      29.90F
LOUISVILLE/LOU CLOUDY    56  53  90 CALM      29.91F
FORT KNOX      PTCLDY    51  51  97 NE5       29.89F
$$

KYZ035>037-039>044-047>052-055>060-089>105-230900-
NORTHEAST KENTUCKY

CITY           SKY/WX    TMP DP  RH WIND       PRES   REMARKS
LEXINGTON      CLOUDY    60  49  66 E6        29.90F
COVINGTON      CLOUDY    54  47  77 CALM      29.92F
FRANKFORT      CLOUDY    58  50  75 VRB3      29.89F
$$

KYZ054-064>069-076>088-106>120-230900-
SOUTHEAST KENTUCKY

CITY           SKY/WX    TMP DP  RH WIND       PRES   REMARKS
JACKSON        CLOUDY    56  50  80 VRB3      29.91F
LONDON         CLOUDY    57  52  83 N5        29.90F
SOMERSET       CLOUDY    55  50  82 CALM      29.91S
MIDDLESBORO    CLOUDY    58  58  99 CALM      29.90F
MONTICELLO     CLOUDY    58  55  90 W7        29.92S
$$




USA.gov is the U.S. government's official web portal to all federal, state and local government web resources and services.